User: anonymous   Login
Location: Unspecified
(0.0000°N, 0.0000°E)
Time: 20:48:48
(UTC+00:00)
Language:

SJ-6G - Orbit

View from above orbital plane
View from above orbital plane
View from above satellite
View from above satellite

Ground track
Ground track

The orbit is defined by the following mean orbital elements,

1 37179U          26150.49041014 +.00000000 +00000-0 +53871-3 0 00004
2 37179  97.8285 173.0755 0016804 288.3179  71.6226 15.17759357    07
Epoch (UTC): 30 May 2026 11:46:11
Eccentricity: 0.0016804
inclination: 97.8285°
perigee height: 501 km
apogee height: 524 km
right ascension of ascending node: 173.0755°
argument of perigee: 288.3179°
revolutions per day: 15.17759357
mean anomaly at epoch: 71.6226°

The dashed part of the orbit path shows where the satellite is in the earth's shadow,  

DLR